JLY7865 SBCF-SBGO

Flight info

Callsign JLY7865
Flight time N/A
Altitude 34000
Route MIMIP DCT SIRUL
Aircraft B738/M-SDE2E3FGHIRWXY/LB1

Departure

Time N/A
Airport Tancredo Neves International Airport (SBCF)

Arrival

Time 2026-04-21 17:55
Airport Santa Genoveva International Airport (SBGO)
Time Latitude Longitude Altitude Speed Heading
2026-04-21 17:48 -16.90866 -48.91716 9189 ft 295 kts 336°
2026-04-21 17:48 -16.88999 -48.92602 8871 ft 294 kts 336°
2026-04-21 17:48 -16.87141 -48.93483 8564 ft 293 kts 336°
2026-04-21 17:49 -16.85293 -48.94360 8264 ft 291 kts 336°
2026-04-21 17:49 -16.83451 -48.95233 7970 ft 289 kts 336°
2026-04-21 17:49 -16.81625 -48.96099 7687 ft 288 kts 336°
2026-04-21 17:49 -16.79828 -48.96950 7430 ft 286 kts 336°
2026-04-21 17:50 -16.78034 -48.97800 7130 ft 279 kts 336°
2026-04-21 17:50 -16.76410 -48.98811 6888 ft 270 kts 315°
2026-04-21 17:50 -16.75373 -49.00319 6732 ft 257 kts 301°
2026-04-21 17:50 -16.74513 -49.01879 6629 ft 239 kts 300°
2026-04-21 17:51 -16.73713 -49.03330 6518 ft 220 kts 300°
2026-04-21 17:51 -16.72958 -49.04706 5984 ft 219 kts 301°
2026-04-21 17:51 -16.72218 -49.06027 5740 ft 207 kts 301°
2026-04-21 17:51 -16.71505 -49.07296 5440 ft 197 kts 301°
2026-04-21 17:52 -16.70839 -49.08483 5204 ft 183 kts 301°
2026-04-21 17:52 -16.70221 -49.09585 5002 ft 168 kts 301°
2026-04-21 17:52 -16.69642 -49.10617 4776 ft 160 kts 301°
2026-04-21 17:52 -16.69078 -49.11620 4544 ft 162 kts 301°
2026-04-21 17:53 -16.68521 -49.12612 4343 ft 161 kts 300°
2026-04-21 17:53 -16.67957 -49.13617 4140 ft 161 kts 300°
2026-04-21 17:53 -16.67392 -49.14624 3922 ft 160 kts 301°
2026-04-21 17:53 -16.66835 -49.15618 3704 ft 159 kts 301°
2026-04-21 17:54 -16.66276 -49.16613 3521 ft 159 kts 301°
2026-04-21 17:54 -16.65718 -49.17609 3299 ft 157 kts 301°
2026-04-21 17:54 -16.65176 -49.18578 3069 ft 151 kts 301°
2026-04-21 17:54 -16.64657 -49.19500 2892 ft 146 kts 300°
2026-04-21 17:55 -16.64137 -49.20426 2641 ft 149 kts 300°
2026-04-21 17:55 -16.63629 -49.21343 2448 ft 140 kts 301°
2026-04-21 17:55 -16.63204 -49.22098 2432 ft 91 kts 300°
2026-04-21 17:55 -16.62992 -49.22474 2430 ft 30 kts 300°
2026-04-21 17:56 -16.62890 -49.22657 2431 ft 28 kts 300°
2026-04-21 17:56 -16.62793 -49.22830 2426 ft 27 kts 301°
2026-04-21 17:56 -16.62716 -49.22960 2427 ft 11 kts 313°
2026-04-21 17:56 -16.62638 -49.22957 2427 ft 14 kts 27°
2026-04-21 17:57 -16.62580 -49.22882 2427 ft 15 kts 101°
2026-04-21 17:57 -16.62635 -49.22774 2426 ft 18 kts 120°
2026-04-21 17:57 -16.62702 -49.22653 2427 ft 20 kts 120°
2026-04-21 17:57 -16.62777 -49.22519 2427 ft 22 kts 121°
2026-04-21 17:58 -16.62850 -49.22389 2427 ft 18 kts 120°
2026-04-21 17:58 -16.62916 -49.22272 2431 ft 20 kts 120°
2026-04-21 17:58 -16.62981 -49.22136 2432 ft 22 kts 107°
2026-04-21 17:58 -16.62982 -49.21972 2432 ft 24 kts 78°
2026-04-21 17:59 -16.62945 -49.21796 2430 ft 26 kts 77°
2026-04-21 17:59 -16.62921 -49.21671 2433 ft 15 kts 92°
2026-04-21 17:59 -16.62990 -49.21606 2430 ft 11 kts 146°
2026-04-21 17:59 -16.62979 -49.21538 2433 ft 0 kts 65°